Location: Oso Ridge
(35.0450°N, 108.0864°W)
Time: 22:43:16
(UTC-06:00)

Amateur Radio Satellites - All Passes

Search period start: 02 September 2014 22:13
Search period end: 03 September 2014 22:13
Location: Oso Ridge, 35.0450°N, 108.0864°W

Satellite Date Start Highest point End Downlink Frequencies (MHz)
Time Altitude Azimuth
MaSat-1 02 Sep 22:26:00 22:30:10 42° 62° (ENE) 22:33:45 437.345 MHz
Saudisat 1A 02 Sep 22:31:15 22:35:31 51° 302° (WNW) 22:39:50 436.775 MHz
FUNcube-1 02 Sep 22:42:09 22:46:16 64° 76° (ENE) 22:50:30 145.950 - 145.970 MHz USB
KITSAT 1 02 Sep 23:32:16 23:40:22 80° 298° (WNW) 23:48:30 435.175 FM
MaSat-1 03 Sep 00:05:10 00:06:27 11° 262° (W) 00:07:40 437.345 MHz
Oscar 10/S400 03 Sep 00:20:48 01:04:40 67° 200° (SSW) 10:39:20 145.825 - 145.975 CW/USB, Beacon 145.810 USB
AO-40 03 Sep 01:17:19 02:47:31 23° 230° (SW) 05:42:12 Beacon 2401.320
Sapphire 03 Sep 01:19:19 01:23:53 27° 55° (NE) 01:28:26 437.095 MHz 1200 baud AX-25 AFSK
KITSAT 1 03 Sep 01:31:51 01:37:03 18° 319° (NW) 01:42:18 435.175 FM
PCSat 03 Sep 01:47:56 01:53:14 51° 60° (ENE) 01:58:28 145.825 MHz
SO-50 03 Sep 01:49:29 01:50:03 10° 106° (ESE) 01:50:37 436.795 FM
Oscar 19 03 Sep 01:50:50 01:54:44 21° 95° (E) 01:58:36 437.125 CW, 437.150 USB
Oscar 16 03 Sep 02:25:26 02:30:30 50° 100° (E) 02:35:30 437.025 USB, Beacon 2401.1428
ITAMSAT 1 03 Sep 02:31:08 02:35:07 22° 95° (E) 02:39:05 435.822 SSB
Uribyol 2 03 Sep 02:39:46 02:44:15 29° 97° (E) 02:48:44 436.500 FM
TMSAT-1 03 Sep 03:00:17 03:02:41 13° 92° (E) 03:05:04 436.925 FM
AO-27 03 Sep 03:00:22 03:05:20 45° 100° (E) 03:10:17 436.795 MHz FM
Sapphire 03 Sep 03:02:24 03:07:21 37° 251° (WSW) 03:12:16 437.095 MHz 1200 baud AX-25 AFSK
OPAL 03 Sep 03:24:39 03:25:30 10° 59° (ENE) 03:26:20 ?
SO-50 03 Sep 03:25:34 03:29:58 64° 301° (WNW) 03:34:30 436.795 FM
AO-Echo 03 Sep 03:28:05 03:32:47 81° 284° (WNW) 03:37:33 ?
Oscar 19 03 Sep 03:29:21 03:34:09 39° 289° (WNW) 03:38:54 437.125 CW, 437.150 USB
PCSat 03 Sep 03:32:35 03:36:10 18° 255° (WSW) 03:39:45 145.825 MHz
JAS-1B 03 Sep 03:45:00 03:51:25 84° 285° (WNW) 03:57:08 435.800 - 435.900 CW/SSB
Gurwin Techsat 1B 03 Sep 03:48:33 03:53:48 59° 101° (E) 03:59:01 435.225 FM
Oscar 16 03 Sep 04:06:04 04:09:23 17° 295° (WNW) 04:12:42 437.025 USB, Beacon 2401.1428
ITAMSAT 1 03 Sep 04:09:55 04:14:39 37° 289° (WNW) 04:19:24 435.822 SSB
Uribyol 2 03 Sep 04:19:12 04:23:37 29° 291° (WNW) 04:28:02 436.500 FM
Uosat F 03 Sep 04:23:33 04:26:14 14° 93° (E) 04:28:54 435.120 FM
AO-7 03 Sep 04:30:42 04:37:27 27° 97° (E) 04:44:09 29.400 - 29.500 MHz
TMSAT-1 03 Sep 04:37:44 04:42:58 63° 286° (WNW) 04:48:11 436.925 FM
AO-27 03 Sep 04:40:52 04:44:28 19° 294° (WNW) 04:48:04 436.795 MHz FM
OPAL 03 Sep 04:58:31 05:03:35 86° 255° (WSW) 05:08:45 ?
UOSAT-12 03 Sep 05:04:41 05:09:16 82° 300° (WNW) 05:13:58 437.025 FM, 437.400 FM
Gurwin Techsat 1B 03 Sep 05:30:13 05:33:13 15° 296° (WNW) 05:36:12 435.225 FM
Uosat F 03 Sep 06:00:25 06:05:16 53° 287° (WNW) 06:10:07 435.120 FM
Hamsat 03 Sep 06:17:03 06:20:18 21° 95° (E) 06:23:31 145.90 MHz
AO-7 03 Sep 06:22:29 06:30:32 58° 292° (WNW) 06:38:34 29.400 - 29.500 MHz
STRAND 1 03 Sep 06:48:45 06:53:35 46° 72° (ENE) 06:58:26 ?
UOSAT-12 03 Sep 06:49:34 06:50:10 10° 317° (NW) 06:50:45 437.025 FM, 437.400 FM
RS-15 03 Sep 06:54:30 07:05:06 52° 110° (ESE) 07:15:28 29.354 - 29.394 USB, Beacon 29.352 USB
Saudisat 1A 03 Sep 07:00:57 07:05:13 47° 57° (ENE) 07:09:27 436.775 MHz
JAS-2 03 Sep 07:06:25 07:11:48 70° 102° (ESE) 07:17:45 435.800 - 435.900 CW/SSB, 435.910 FM
KITSAT 1 03 Sep 07:29:44 07:36:39 30° 50° (NE) 07:43:31 435.175 FM
SO-67 03 Sep 07:43:20 07:46:12 24° 96° (E) 07:49:03 435.3500 MHz FM
Hamsat 03 Sep 07:52:32 07:56:13 28° 289° (WNW) 07:59:52 145.90 MHz
AO-7 03 Sep 08:20:41 08:21:33 10° 311° (NW) 08:22:25 29.400 - 29.500 MHz
STRAND 1 03 Sep 08:29:40 08:32:57 17° 266° (W) 08:36:15 ?
ISS 03 Sep 08:30:19 08:33:07 25° 130° (SE) 08:35:56 145.800 FM
Saudisat 1A 03 Sep 08:42:01 08:44:22 14° 252° (WSW) 08:46:42 436.775 MHz
JAS-2 03 Sep 08:54:02 08:56:26 13° 296° (WNW) 08:58:55 435.800 - 435.900 CW/SSB, 435.910 FM
RS-15 03 Sep 09:07:17 09:17:34 42° 311° (NW) 09:27:47 29.354 - 29.394 USB, Beacon 29.352 USB
SO-67 03 Sep 09:17:04 09:19:00 14° 290° (WNW) 09:20:57 435.3500 MHz FM
KITSAT 1 03 Sep 09:24:34 09:32:26 59° 248° (WSW) 09:40:17 435.175 FM
HO-68 03 Sep 09:37:24 09:43:59 38° 99° (E) 09:50:32 435.675 MHz FM
UKube-1 03 Sep 09:56:34 10:00:04 23° 96° (E) 10:03:33 145.840 MHz, 145.915 MHz
Oscar 11 03 Sep 09:59:10 10:01:56 16° 94° (E) 10:04:42 145.825 FM, Beacon 2401.500 USB
ISS 03 Sep 10:06:55 10:09:47 26° 325° (NW) 10:12:40 145.800 FM
FUNcube-1 03 Sep 10:35:23 10:38:27 17° 94° (E) 10:41:30 145.950 - 145.970 MHz USB
PANSAT 03 Sep 10:37:57 10:41:03 23° 168° (SSE) 10:44:10 not established
HO-68 03 Sep 11:25:11 11:31:32 36° 294° (WNW) 11:37:54 435.675 MHz FM
RS-15 03 Sep 11:29:05 11:34:06 14° 342° (NNW) 11:39:08 29.354 - 29.394 USB, Beacon 29.352 USB
UKube-1 03 Sep 11:32:37 11:36:10 25° 290° (WNW) 11:39:42 145.840 MHz, 145.915 MHz
Oscar 11 03 Sep 11:34:13 11:38:12 35° 288° (WNW) 11:42:09 145.825 FM, Beacon 2401.500 USB
SO-50 03 Sep 12:00:07 12:04:46 46° 57° (ENE) 12:09:25 436.795 FM
MaSat-1 03 Sep 12:09:33 12:14:01 39° 106° (ESE) 12:18:45 437.345 MHz
FUNcube-1 03 Sep 12:10:41 12:14:54 38° 287° (WNW) 12:19:09 145.950 - 145.970 MHz USB
PANSAT 03 Sep 12:17:23 12:20:49 30° 181° (S) 12:24:15 not established
JAS-1B 03 Sep 12:38:39 12:42:34 14° 57° (ENE) 12:46:19 435.800 - 435.900 CW/SSB
Oscar 19 03 Sep 13:04:45 13:08:44 23° 67° (ENE) 13:12:44 437.125 CW, 437.150 USB
UOSAT-12 03 Sep 13:37:39 13:41:59 35° 54° (NE) 13:46:15 437.025 FM, 437.400 FM
Oscar 16 03 Sep 13:39:09 13:44:08 52° 73° (ENE) 13:49:10 437.025 USB, Beacon 2401.1428
SO-50 03 Sep 13:41:47 13:44:58 18° 251° (WSW) 13:48:09 436.795 FM
ITAMSAT 1 03 Sep 13:46:12 13:50:19 25° 68° (ENE) 13:54:27 435.822 SSB
MaSat-1 03 Sep 13:47:11 13:51:08 23° 303° (WNW) 13:55:13 437.345 MHz
RS-15 03 Sep 13:47:57 13:53:34 15° 21° (NNE) 13:59:15 29.354 - 29.394 USB, Beacon 29.352 USB
Uribyol 2 03 Sep 13:54:38 13:59:08 32° 70° (ENE) 14:03:40 436.500 FM
PANSAT 03 Sep 13:57:36 14:00:34 21° 194° (SSW) 14:03:31 not established
AO-27 03 Sep 14:15:21 14:20:19 49° 72° (ENE) 14:25:18 436.795 MHz FM
TMSAT-1 03 Sep 14:17:54 14:21:03 16° 65° (ENE) 14:24:12 436.925 FM
JAS-1B 03 Sep 14:22:07 14:31:46 67° 72° (ENE) 14:40:23 435.800 - 435.900 CW/SSB
AO-Echo 03 Sep 14:37:36 14:42:38 89° 257° (WSW) 14:47:31 ?
Oscar 19 03 Sep 14:43:04 14:47:48 37° 262° (W) 14:52:35 437.125 CW, 437.150 USB
ISS 03 Sep 15:02:28 15:03:55 12° 26° (NNE) 15:05:22 145.800 FM
Gurwin Techsat 1B 03 Sep 15:06:22 15:11:37 68° 75° (ENE) 15:16:54 435.225 FM
UOSAT-12 03 Sep 15:18:17 15:21:54 22° 250° (WSW) 15:25:27 437.025 FM, 437.400 FM
Oscar 16 03 Sep 15:20:47 15:23:45 15° 267° (W) 15:26:44 437.025 USB, Beacon 2401.1428
ITAMSAT 1 03 Sep 15:24:59 15:29:37 34° 262° (W) 15:34:16 435.822 SSB
AO-7 03 Sep 15:26:31 15:33:23 30° 60° (ENE) 15:40:13 29.400 - 29.500 MHz
Uosat F 03 Sep 15:34:08 15:36:59 15° 65° (ENE) 15:39:49 435.120 FM
Uribyol 2 03 Sep 15:34:21 15:38:34 26° 264° (W) 15:42:49 436.500 FM
TMSAT-1 03 Sep 15:55:18 16:00:28 56° 259° (W) 16:05:40 436.925 FM
AO-27 03 Sep 15:56:52 16:00:03 16° 267° (W) 16:03:15 436.795 MHz FM
Sapphire 03 Sep 15:57:27 16:02:33 45° 111° (ESE) 16:07:42 437.095 MHz 1200 baud AX-25 AFSK
RS-15 03 Sep 15:59:14 16:09:49 47° 51° (NE) 16:20:43 29.354 - 29.394 USB, Beacon 29.352 USB
JAS-1B 03 Sep 16:14:34 16:22:25 28° 265° (W) 16:29:46 435.800 - 435.900 CW/SSB
PCSat 03 Sep 16:26:06 16:31:30 89° 296° (WNW) 16:36:57 145.825 MHz
ISS 03 Sep 16:37:45 16:41:05 85° 43° (NE) 16:44:24 145.800 FM
Gurwin Techsat 1B 03 Sep 16:50:00 16:52:00 12° 269° (W) 16:54:00 435.225 FM
Hamsat 03 Sep 17:09:40 17:10:37 11° 65° (ENE) 17:11:34 145.90 MHz
Uosat F 03 Sep 17:10:24 17:15:17 54° 259° (W) 17:20:11 435.120 FM
OPAL 03 Sep 17:12:03 17:16:46 34° 100° (E) 17:21:24 ?
JAS-2 03 Sep 17:17:20 17:21:25 20° 67° (ENE) 17:25:17 435.800 - 435.900 CW/SSB, 435.910 FM
AO-7 03 Sep 17:17:30 17:25:39 57° 257° (WSW) 17:33:49 29.400 - 29.500 MHz
Sapphire 03 Sep 17:41:58 17:46:09 23° 307° (NW) 17:50:23 437.095 MHz 1200 baud AX-25 AFSK
RS-15 03 Sep 18:11:41 18:22:08 48° 251° (WSW) 18:33:04 29.354 - 29.394 USB, Beacon 29.352 USB
PCSat 03 Sep 18:13:26 18:15:40 12° 313° (NW) 18:17:54 145.825 MHz
Hamsat 03 Sep 18:41:45 18:46:00 59° 260° (W) 18:50:19 145.90 MHz
OPAL 03 Sep 18:51:11 18:55:26 26° 294° (WNW) 18:59:39 ?
JAS-2 03 Sep 19:00:20 19:06:15 49° 259° (W) 19:11:35 435.800 - 435.900 CW/SSB, 435.910 FM
STRAND 1 03 Sep 19:03:26 19:07:10 20° 95° (E) 19:10:53 ?
SO-67 03 Sep 19:45:18 19:48:45 74° 259° (W) 19:52:13 435.3500 MHz FM
HO-68 03 Sep 20:04:02 20:09:05 21° 61° (ENE) 20:14:08 435.675 MHz FM
STRAND 1 03 Sep 20:41:42 20:46:26 39° 289° (WNW) 20:51:10 ?
UKube-1 03 Sep 20:50:13 20:52:36 15° 66° (ENE) 20:54:59 145.840 MHz, 145.915 MHz
Saudisat 1A 03 Sep 21:04:51 21:08:31 26° 112° (ESE) 21:12:12 436.775 MHz
HO-68 03 Sep 21:49:03 21:56:07 67° 257° (WSW) 22:03:14 435.675 MHz FM
KITSAT 1 03 Sep 21:54:58 22:01:38 29° 106° (ESE) 22:08:18 435.175 FM
